• en Suisse
  • Liste des pays
  • À 7 jours
  • Température de l'eau
  • Carte satellitaire
  • Carte météo
  • Widgets météo
  • user-avatar
    Se connecter

    Météo par heure à Matlock

    Ce jour, 16 Janvier, Mardi

    Heure Température Précipitation Vent Pression Humidité
    00:00 +2°C° 0 mm 6 m/s 725 mmHg 81%
    01:00 +2°C° 0,2 mm 6 m/s 725 mmHg 80%
    02:00 +1°C° 0,2 mm 6 m/s 725 mmHg 79%
    03:00 0°C° 0,2 mm 7 m/s 725 mmHg 78%
    04:00 0°C° 0,2 mm 7 m/s 726 mmHg 76%
    05:00 0°C° 0,2 mm 7 m/s 726 mmHg 74%
    06:00 0°C° 0 mm 5 m/s 726 mmHg 77%
    07:00 0°C° 0,1 mm 5 m/s 726 mmHg 76%
    08:00 -1°C° 0,1 mm 6 m/s 726 mmHg 75%
    09:00 -1°C° 0,1 mm 7 m/s 726 mmHg 74%
    10:00 0°C° 0,2 mm 7 m/s 726 mmHg 72%
    11:00 0°C° 0,2 mm 8 m/s 727 mmHg 70%
    12:00 +2°C° 0 mm 7 m/s 727 mmHg 69%
    13:00 +2°C° 0,1 mm 7 m/s 727 mmHg 69%
    14:00 0°C° 0,1 mm 7 m/s 726 mmHg 70%
    15:00 0°C° 0,1 mm 8 m/s 726 mmHg 70%
    16:00 0°C° 0,2 mm 7 m/s 726 mmHg 71%
    17:00 -1°C° 0,2 mm 7 m/s 726 mmHg 71%
    18:00 -1°C° 0,2 mm 7 m/s 726 mmHg 72%
    19:00 -2°C° 0,2 mm 6 m/s 726 mmHg 72%
    20:00 -2°C° 0,2 mm 6 m/s 726 mmHg 71%
    21:00 -2°C° 0,2 mm 6 m/s 726 mmHg 71%
    22:00 -2°C° 0,2 mm 7 m/s 726 mmHg 70%
    23:00 -2°C° 0,2 mm 7 m/s 727 mmHg 70%

    Demain, 17 Janvier, Mercredi

    Heure Température Précipitation Vent Pression Humidité
    00:00 -2°C° 0,2 mm 7 m/s 727 mmHg 69%
    01:00 -2°C° 0,1 mm 7 m/s 728 mmHg 70%
    02:00 -2°C° 0,1 mm 7 m/s 728 mmHg 71%
    03:00 -3°C° 0,1 mm 7 m/s 729 mmHg 72%
    04:00 -2°C° 0,1 mm 7 m/s 730 mmHg 72%
    05:00 -2°C° 0,1 mm 8 m/s 730 mmHg 72%
    06:00 -1°C° 0,1 mm 8 m/s 731 mmHg 72%
    07:00 -1°C° 0,1 mm 8 m/s 732 mmHg 72%
    08:00 -1°C° 0,1 mm 7 m/s 733 mmHg 72%
    09:00 -1°C° 0,1 mm 7 m/s 734 mmHg 73%
    10:00 -1°C° 0,2 mm 8 m/s 735 mmHg 73%
    11:00 0°C° 0,2 mm 8 m/s 736 mmHg 73%
    12:00 0°C° 0,2 mm 8 m/s 736 mmHg 74%
    13:00 0°C° 0,1 mm 8 m/s 737 mmHg 73%
    14:00 0°C° 0,1 mm 8 m/s 737 mmHg 72%
    15:00 0°C° 0,1 mm 7 m/s 737 mmHg 71%
    16:00 -1°C° 0 mm 7 m/s 737 mmHg 73%
    17:00 -1°C° 0 mm 6 m/s 737 mmHg 76%
    18:00 0°C° 0 mm 5 m/s 737 mmHg 78%
    19:00 0°C° 0,2 mm 5 m/s 736 mmHg 81%
    20:00 0°C° 0,2 mm 5 m/s 735 mmHg 83%
    21:00 0°C° 0,2 mm 5 m/s 735 mmHg 86%
    22:00 +1°C° 1,2 mm 5 m/s 732 mmHg 88%
    23:00 +1°C° 1,2 mm 6 m/s 730 mmHg 91%

    Après-demain, 18 Janvier, Jeudi

    Heure Température Précipitation Vent Pression Humidité
    00:00 +2°C° 1,2 mm 7 m/s 728 mmHg 93%
    01:00 +1°C° 0,2 mm 8 m/s 728 mmHg 90%
    02:00 +2°C° 0,2 mm 9 m/s 727 mmHg 87%
    03:00 +3°C° 0,2 mm 10 m/s 727 mmHg 84%
    04:00 +2°C° 0 mm 9 m/s 728 mmHg 84%
    05:00 +1°C° 0 mm 8 m/s 728 mmHg 84%
    06:00 0°C° 0 mm 7 m/s 729 mmHg 84%
    07:00 +1°C° 0,1 mm 6 m/s 730 mmHg 85%
    08:00 +1°C° 0,1 mm 5 m/s 730 mmHg 86%
    09:00 0°C° 0,1 mm 4 m/s 731 mmHg 87%
    10:00 +1°C° 0,5 mm 4 m/s 730 mmHg 87%
    11:00 +1°C° 0,5 mm 5 m/s 730 mmHg 86%
    12:00 +2°C° 0,5 mm 5 m/s 730 mmHg 86%
    13:00 +2°C° 0,3 mm 5 m/s 730 mmHg 84%
    14:00 +2°C° 0,3 mm 5 m/s 730 mmHg 81%
    15:00 +2°C° 0,3 mm 6 m/s 731 mmHg 79%
    16:00 +1°C° 0,1 mm 5 m/s 731 mmHg 79%
    17:00 +1°C° 0,1 mm 5 m/s 732 mmHg 79%
    18:00 0°C° 0,1 mm 5 m/s 732 mmHg 80%
    19:00 0°C° 0 mm 5 m/s 733 mmHg 80%
    20:00 -1°C° 0 mm 5 m/s 733 mmHg 80%
    21:00 -1°C° 0 mm 5 m/s 734 mmHg 80%
    22:00 -1°C° 0 mm 5 m/s 734 mmHg 80%
    23:00 -1°C° 0 mm 5 m/s 734 mmHg 81%

    19 Janvier, Vendredi

    Heure Température Précipitation Vent Pression Humidité
    00:00 -1°C° 0 mm 5 m/s 734 mmHg 81%
    01:00 -2°C° 0 mm 5 m/s 734 mmHg 81%
    02:00 -2°C° 0 mm 5 m/s 734 mmHg 80%
    03:00 -2°C° 0 mm 5 m/s 734 mmHg 80%
    04:00 -2°C° 0 mm 5 m/s 734 mmHg 80%
    05:00 -2°C° 0 mm 5 m/s 734 mmHg 79%
    06:00 -2°C° 0 mm 5 m/s 734 mmHg 79%
    07:00 -2°C° 0,1 mm 5 m/s 734 mmHg 78%
    08:00 -2°C° 0,1 mm 5 m/s 734 mmHg 77%
    09:00 -2°C° 0,1 mm 5 m/s 734 mmHg 76%
    10:00 -2°C° 0,1 mm 6 m/s 734 mmHg 73%
    11:00 -1°C° 0,1 mm 6 m/s 734 mmHg 70%
    12:00 -1°C° 0,1 mm 6 m/s 734 mmHg 67%
    13:00 -1°C° 0,1 mm 6 m/s 735 mmHg 69%
    14:00 -1°C° 0,1 mm 6 m/s 735 mmHg 71%
    15:00 0°C° 0,1 mm 5 m/s 735 mmHg 73%
    16:00 0°C° 0 mm 5 m/s 735 mmHg 74%
    17:00 -1°C° 0 mm 5 m/s 735 mmHg 76%
    18:00 -1°C° 0 mm 5 m/s 735 mmHg 78%
    19:00 -1°C° 0 mm 5 m/s 736 mmHg 79%
    20:00 -1°C° 0 mm 5 m/s 736 mmHg 79%
    21:00 -1°C° 0 mm 5 m/s 736 mmHg 80%
    22:00 -1°C° 0 mm 5 m/s 736 mmHg 79%
    23:00 -2°C° 0 mm 6 m/s 737 mmHg 79%

    20 Janvier, Samedi

    Heure Température Précipitation Vent Pression Humidité
    00:00 -2°C° 0 mm 6 m/s 737 mmHg 79%
    01:00 -2°C° 0 mm 6 m/s 737 mmHg 79%
    02:00 -1°C° 0 mm 5 m/s 737 mmHg 80%
    03:00 -1°C° 0 mm 5 m/s 737 mmHg 81%
    04:00 -1°C° 0,1 mm 5 m/s 737 mmHg 81%
    05:00 -1°C° 0,1 mm 5 m/s 737 mmHg 82%
    06:00 -1°C° 0,1 mm 5 m/s 737 mmHg 83%
    07:00 -1°C° 0 mm 5 m/s 737 mmHg 82%
    08:00 -1°C° 0 mm 4 m/s 738 mmHg 82%
    09:00 -1°C° 0 mm 4 m/s 738 mmHg 81%
    10:00 -1°C° 0 mm 5 m/s 739 mmHg 78%
    11:00 0°C° 0 mm 5 m/s 739 mmHg 75%
    12:00 +1°C° 0 mm 5 m/s 739 mmHg 73%
    13:00 +1°C° 0 mm 4 m/s 739 mmHg 74%
    14:00 +2°C° 0 mm 3 m/s 740 mmHg 76%
    15:00 +2°C° 0 mm 2 m/s 740 mmHg 78%
    16:00 +3°C° 0 mm 1 m/s 740 mmHg 80%
    17:00 +2°C° 0 mm 1 m/s 741 mmHg 81%
    18:00 0°C° 0 mm 0 m/s 741 mmHg 82%
    19:00 +1°C° 0 mm 1 m/s 741 mmHg 83%
    20:00 +1°C° 0 mm 1 m/s 741 mmHg 83%
    21:00 +1°C° 0 mm 1 m/s 741 mmHg 83%
    22:00 -1°C° 0,3 mm 2 m/s 741 mmHg 84%
    23:00 -1°C° 0,3 mm 2 m/s 741 mmHg 86%

    21 Janvier, Dimanche

    Heure Température Précipitation Vent Pression Humidité
    00:00 +1°C° 0,3 mm 2 m/s 741 mmHg 87%
    01:00 +1°C° 0,3 mm 2 m/s 740 mmHg 88%
    02:00 0°C° 0,3 mm 3 m/s 740 mmHg 89%
    03:00 0°C° 0,3 mm 3 m/s 740 mmHg 90%
    04:00 0°C° 0,2 mm 3 m/s 739 mmHg 90%
    05:00 0°C° 0,2 mm 3 m/s 739 mmHg 90%
    06:00 -1°C° 0,2 mm 4 m/s 739 mmHg 90%
    07:00 -1°C° 0,1 mm 4 m/s 740 mmHg 90%
    08:00 -1°C° 0,1 mm 4 m/s 740 mmHg 89%
    09:00 -1°C° 0,1 mm 5 m/s 740 mmHg 89%
    10:00 -1°C° 0,1 mm 5 m/s 740 mmHg 90%
    11:00 -1°C° 0,1 mm 5 m/s 740 mmHg 90%
    12:00 0°C° 0,1 mm 5 m/s 740 mmHg 91%
    13:00 0°C° 0,1 mm 5 m/s 740 mmHg 92%
    14:00 0°C° 0,1 mm 4 m/s 740 mmHg 93%
    15:00 0°C° 0,1 mm 4 m/s 740 mmHg 94%
    16:00 0°C° 0,1 mm 4 m/s 740 mmHg 95%
    17:00 +1°C° 0,1 mm 3 m/s 740 mmHg 96%
    18:00 +1°C° 0,1 mm 3 m/s 740 mmHg 97%
    19:00 +2°C° 0 mm 3 m/s 740 mmHg 97%
    20:00 +2°C° 0 mm 3 m/s 741 mmHg 97%
    21:00 +3°C° 0 mm 2 m/s 741 mmHg 97%
    22:00 +1°C° 0 mm 3 m/s 741 mmHg 97%
    23:00 +1°C° 0 mm 3 m/s 742 mmHg 96%
    Voir plus